HST 1 20580U 90037B 24324.21785374 .00008868 00000-0 37795-3 0 9990 2 20580 28.4702 24.0539 0001663 286.1909 73.8502 15.21171651700893 ISS (ZARYA) 1 25544U 98067A 24324.20355804 .00019534 00000-0 34966-3 0 9995 2 25544 51.6393 267.3909 0007362 234.9623 125.0676 15.49957044482595 CXO 1 25867U 99040B 24326.52387355 .00000571 00000-0 00000-0 0 9998 2 25867 44.7729 141.3483 8721311 304.3692 359.8417 0.37806941 15154